Tracking 19792 objects as of 16-Jul-2019
HD Live streaming from Space Station
objects crossing your sky now

NOAA 16 DEB

Track NOAA 16 DEB now!
10-day predictions


NORAD ID: 41534
Int'l Code: 2000-055NJ
Perigee: 851.9 km
Apogee: 892.4 km
Inclination: 98.9 °
Period: 102.2 minutes
Semi major axis: 7243 km
RCS: Unknown
Launch date: September 21, 2000
Source: United States (US)
Launch site: AIR FORCE WESTERN TEST RANGE (AFWTR)

Note: This is SATELLITE DEBRIS
aabbcc
Your satellite tracking list
Your tracking list is empty




NASA's NSSDC Master Catalog

Two Line Element Set (TLE):
1 41534U 00055NJ  19196.40379226 +.00000761 +00000-0 +46842-3 0  9997
2 41534 098.8875 263.3185 0027942 186.6864 173.3936 14.08344861165413
Source of the keplerian elements: AFSPC